Powrót do katalogu

TITAN 3C TRANSTAGE DEB

LostMEO
NORAD 39299·DEBRIS·🇺🇸 United States

Wystrzelony Sep 26, 1968 z Cape Canaveral Space Force Station

Loading…

Następne Przeloty (najbliższe 24 godziny)

TLE

NieaktualneSource: Space-Track

Epoka: Mar 17, 2026, 20:41 UTC

1 39299U 68081AK  26076.86243257 -.00000075  00000-0  00000-0 0  9996
2 39299   1.4395  20.4788 0164323  23.2172 150.1221  1.00443730 66254

Śledź TITAN 3C TRANSTAGE DEB w czasie rzeczywistym z AllMySat

Download on the App Store